sat.trackr.live / text

‹ back to catalog

STARLINK-32467

NORAD 61713 · 2024-196G

PAYLOAD ACTIVE UNKNOWN

§ Identity

Operator
Country
US
Launch date
2024-10-30
Launch site
AFETR
Launch vehicle
Mass (kg)
RCS (m²)

Purposes: comms

External: N2YO · Heavens-Above · Gunter

§ Orbital elements

Epoch: 2026-05-25T04:26:22.337664Z

Period
94.11 min
Inclination
53.1598°
Eccentricity
0.0001155
Mean motion
15.30194060 rev/d
Perigee alt
474.4 km
Apogee alt
476.0 km
Semi-major
6,853.4 km
B*
4.8085e-6
RAAN
106.3639°
Arg perigee
84.1411°
Mean anomaly
275.9722°
Rev number
8,886

§ Raw data

STARLINK-324671 61713U 24196G   26145.18498076 -.00000217  00000+0  48085-5 0  99912 61713  53.1598 106.3639 0001155  84.1411 275.9722 15.30194060 88863

JSON: /api/v1/satellites/61713 · /tle

For live sub-satellite position, see the globe view (requires WebGL).

§ Visibility from observer

Set your observer location to see the next 7 days of passes ≥ 10°. The values pass through the URL so the page stays shareable.

No JS? Fill the form by hand. The geolocation button needs JavaScript.